"Pseudo-MPEC" for P21JcjZ

Created 2023 Sep 29 12:22:11 UT using Find_Orb

Click here for an explanation of pseudo-MPECs

 
 Astrometry: 
     P21JcjZ* C2023 09 11iZH7%)]5AstrometryNL$hWjZ(RblX+y=p?Ef(20bfXSk;k[Cqa!F52
     P21JcjZ  C2023 09 11_rk?wredacted;\FVgM7?sclick$G+4cLFhereqqabR^3mfor_sfF52
     P21JcjZ  C2023 09 11*l@'NA]explanationou1a:^eiSY;yP3:8?xg]y-gE'HN`Cwq*l/F52

Station data:
(F52) Pan-STARRS 2, Haleakala  (N20.707382 W156.255910)  US/Hawaii.
   Observers J. Bulger, T. Dukes, T. Lowe, A. Schultz, M. Willman. Measurers
   K. Chambers, S. Chastel, T. de Boer, L. Denneau, J. Fairlamb, H.
   Flewelling, M. Huber, C.-C. Lin, E. Magnier, Y. Ramanjooloo, R. Wainscoat,
   R. Weryk. 1.8-m Ritchey-Chrétien + CCD.

Orbital elements:  P21JcjZ
   Perihelion 2023 Nov 30.03684 +/- 54.4 TT =  0:53:03 (JD 2460278.53684)
Epoch 2023 Sep 11.0 TT = JDT 2460198.5   Earth MOID: 0.1694   Ma: 0.0043
M 325.99553064 +/- 23               (J2000 ecliptic)             AutoNEOCP
n   0.42486020 +/- 0.3              Peri.  276.56167 +/- 90
a   1.75242192 +/- 0.825            Node   153.29117 +/- 50
e   0.4498474 +/- 0.265             Incl.   13.87734 +/- 12
P   2.32/847.32d           H 23.57  G  0.15   U 11.9  SR
q 0.96409940 +/- 0.333    Q 2.54074445 +/- 36.5
From 3 observations 2023 Sept. 11 (31.5 min); mean residual 0".01
Residuals in arcseconds: 
230911 F52  .01+  .01-    230911 F52  .01-  .02+    230911 F52  .01+  .01-    

Ephemerides (geocentric):
Date (UTC) HH   RA             Dec           delta  r     elong  mag " sig PA
---- --------  ------------   ------------  ------ ------ -----  --- --------
2023 09 29 12  00 14 31.314   -39 46 15.89  .23419 1.1860 137.9 22.2  47d  99
2023 09 29 13  00 14 34.271   -39 49 34.81  .23410 1.1858 137.8 22.2  47d  99
2023 09 29 14  00 14 37.235   -39 52 53.76  .23401 1.1855 137.8 22.2  47d  99
2023 09 29 15  00 14 40.207   -39 56 12.74  .23393 1.1853 137.7 22.2  47d  99
2023 09 29 16  00 14 43.186   -39 59 31.73  .23384 1.1850 137.6 22.2  47d  99
2023 09 29 17  00 14 46.173   -40 02 50.75  .23376 1.1848 137.6 22.2  47d  99
2023 09 29 18  00 14 49.167   -40 06 09.79  .23367 1.1845 137.5 22.2  47d  99
2023 09 29 19  00 14 52.168   -40 09 28.85  .23359 1.1843 137.4 22.2  47d  99
2023 09 29 20  00 14 55.177   -40 12 47.93  .23350 1.1840 137.3 22.2  47d  99
2023 09 29 21  00 14 58.194   -40 16 07.03  .23342 1.1838 137.3 22.2  47d  99
2023 09 29 22  00 15 01.218   -40 19 26.15  .23333 1.1835 137.2 22.2  47d  99
2023 09 29 23  00 15 04.250   -40 22 45.29  .23325 1.1833 137.1 22.2  47d  99
2023 09 30 00  00 15 07.290   -40 26 04.44  .23317 1.1830 137.0 22.2  47d  99
2023 09 30 01  00 15 10.337   -40 29 23.62  .23309 1.1828 137.0 22.2  47d  99
2023 09 30 02  00 15 13.392   -40 32 42.81  .23300 1.1825 136.9 22.2  47d  99
2023 09 30 03  00 15 16.454   -40 36 02.02  .23292 1.1823 136.8 22.2  47d  99
2023 09 30 04  00 15 19.525   -40 39 21.24  .23284 1.1820 136.8 22.2  47d 100
2023 09 30 05  00 15 22.603   -40 42 40.48  .23276 1.1818 136.7 22.2  47d 100
2023 09 30 06  00 15 25.689   -40 45 59.74  .23268 1.1815 136.6 22.2  47d 100
2023 09 30 07  00 15 28.782   -40 49 19.01  .23259 1.1813 136.5 22.2  47d 100
2023 09 30 08  00 15 31.884   -40 52 38.29  .23251 1.1811 136.5 22.2  47d 100
2023 09 30 09  00 15 34.993   -40 55 57.59  .23243 1.1808 136.4 22.2  47d 100
2023 09 30 10  00 15 38.111   -40 59 16.89  .23235 1.1806 136.3 22.2  47d 100
2023 09 30 11  00 15 41.236   -41 02 36.22  .23227 1.1803 136.2 22.2  47d 100
2023 09 30 12  00 15 44.369   -41 05 55.55  .23219 1.1801 136.2 22.2  47d 100
2023 09 30 13  00 15 47.510   -41 09 14.89  .23211 1.1798 136.1 22.2  47d 100
2023 09 30 14  00 15 50.660   -41 12 34.25  .23203 1.1796 136.0 22.2  47d 100
2023 09 30 15  00 15 53.817   -41 15 53.61  .23196 1.1793 136.0 22.2  47d 100
2023 09 30 16  00 15 56.982   -41 19 12.98  .23188 1.1791 135.9 22.2  47d 100
2023 09 30 17  00 16 00.156   -41 22 32.36  .23180 1.1788 135.8 22.2  47d 100
2023 09 30 18  00 16 03.337   -41 25 51.75  .23172 1.1786 135.7 22.2  47d 100
2023 09 30 19  00 16 06.527   -41 29 11.15  .23164 1.1783 135.7 22.2  47d 100
2023 09 30 20  00 16 09.725   -41 32 30.56  .23157 1.1781 135.6 22.2  47d 100
2023 09 30 21  00 16 12.931   -41 35 49.97  .23149 1.1778 135.5 22.2  47d 100
2023 09 30 22  00 16 16.145   -41 39 09.39  .23141 1.1776 135.4 22.2  47d 100
2023 09 30 23  00 16 19.367   -41 42 28.81  .23134 1.1773 135.4 22.2  47d 100
2023 10 01 00  00 16 22.598   -41 45 48.24  .23126 1.1771 135.3 22.2  47d 100
2023 10 01 01  00 16 25.837   -41 49 07.67  .23118 1.1768 135.2 22.2  47d 100
2023 10 01 02  00 16 29.085   -41 52 27.10  .23111 1.1766 135.2 22.2  47d 100
2023 10 01 03  00 16 32.341   -41 55 46.54  .23103 1.1763 135.1 22.2  47d 100
2023 10 01 04  00 16 35.605   -41 59 05.98  .23096 1.1761 135.0 22.2  47d 100
2023 10 01 05  00 16 38.878   -42 02 25.43  .23088 1.1758 134.9 22.2  47d 100
2023 10 01 06  00 16 42.159   -42 05 44.87  .23081 1.1756 134.9 22.2  47d 100
2023 10 01 07  00 16 45.448   -42 09 04.32  .23074 1.1753 134.8 22.2  47d 100
2023 10 01 08  00 16 48.746   -42 12 23.76  .23066 1.1751 134.7 22.2  47d 100
2023 10 01 09  00 16 52.053   -42 15 43.21  .23059 1.1748 134.7 22.2  47d 100
2023 10 01 10  00 16 55.368   -42 19 02.65  .23051 1.1746 134.6 22.2  47d 100
2023 10 01 11  00 16 58.692   -42 22 22.10  .23044 1.1744 134.5 22.2  47d 100